SVA3427 WAAA-WIMM

Flight info

Callsign SVA3427
Flight time N/A
Altitude 38000
Route GURNI W35 PNK L504 OBDOS M774 OTLAL DCT TPG A464 IRTAD DCT SAMKO R469 ASUNA/N0482F390 L762 MIBEL/N0482F400 L762 AKPAG
Aircraft B772/H-SDE2E3FGHIJ5LORVWXY/LB1D1

Departure

Time 2026-04-24 06:49
Airport Sultan Hasanuddin International Airport (WAAA)

Arrival

Time N/A
Airport Kualanamu International Airport (WIMM)
Time Latitude Longitude Altitude Speed Heading
2026-04-24 05:58 -5.08254 119.54460 46 ft 0 kts 300°
2026-04-24 06:40 -5.08261 119.54473 44 ft 4 kts 296°
2026-04-24 06:40 -5.08271 119.54498 42 ft 4 kts 285°
2026-04-24 06:40 -5.08276 119.54523 43 ft 4 kts 266°
2026-04-24 06:41 -5.08271 119.54545 42 ft 4 kts 231°
2026-04-24 06:41 -5.08264 119.54553 40 ft 0 kts 210°
2026-04-24 06:43 -5.08266 119.54552 40 ft 2 kts 207°
2026-04-24 06:44 -5.08273 119.54548 42 ft 1 kts 211°
2026-04-24 06:44 -5.08277 119.54546 42 ft 1 kts 211°
2026-04-24 06:44 -5.08283 119.54542 41 ft 3 kts 211°
2026-04-24 06:44 -5.08319 119.54521 46 ft 9 kts 210°
2026-04-24 06:45 -5.08389 119.54479 46 ft 14 kts 210°
2026-04-24 06:45 -5.08471 119.54439 46 ft 11 kts 192°
2026-04-24 06:45 -5.08533 119.54467 44 ft 9 kts 133°
2026-04-24 06:45 -5.08560 119.54510 46 ft 7 kts 121°
2026-04-24 06:46 -5.08599 119.54549 46 ft 8 kts 159°
2026-04-24 06:46 -5.08654 119.54532 46 ft 10 kts 210°
2026-04-24 06:46 -5.08746 119.54480 46 ft 19 kts 210°
2026-04-24 06:46 -5.08859 119.54414 46 ft 19 kts 210°
2026-04-24 06:47 -5.08970 119.54350 46 ft 19 kts 210°
2026-04-24 06:47 -5.09074 119.54290 46 ft 13 kts 208°
2026-04-24 06:47 -5.09137 119.54280 46 ft 8 kts 167°
2026-04-24 06:47 -5.09173 119.54313 46 ft 7 kts 117°
2026-04-24 06:48 -5.09198 119.54356 46 ft 7 kts 116°
2026-04-24 06:48 -5.09202 119.54402 46 ft 4 kts 77°
2026-04-24 06:48 -5.09185 119.54427 46 ft 4 kts 45°
2026-04-24 06:48 -5.09160 119.54444 47 ft 4 kts 30°
2026-04-24 06:49 -5.09136 119.54458 47 ft 4 kts 30°
2026-04-24 06:49 -5.09063 119.54500 48 ft 40 kts 30°
2026-04-24 06:49 -5.08546 119.54797 46 ft 130 kts 30°
2026-04-24 06:49 -5.07226 119.55571 741 ft 166 kts 27°
2026-04-24 06:50 -5.06578 119.55928 1504 ft 162 kts 23°
2026-04-24 06:50 -5.05408 119.56169 1977 ft 183 kts 356°
2026-04-24 06:50 -5.04039 119.56102 2224 ft 211 kts 358°
2026-04-24 06:50 -5.02466 119.56065 2423 ft 241 kts 359°
2026-04-24 06:51 -5.00709 119.56019 2819 ft 260 kts 359°
2026-04-24 06:51 -4.98876 119.55963 3598 ft 265 kts 360°
2026-04-24 06:51 -4.97005 119.55899 4359 ft 271 kts 360°
2026-04-24 06:51 -4.95108 119.55794 5137 ft 276 kts 354°
2026-04-24 06:52 -4.93215 119.55451 5943 ft 279 kts 349°
2026-04-24 06:52 -4.91297 119.55035 6686 ft 282 kts 349°
2026-04-24 06:52 -4.89367 119.54629 7434 ft 285 kts 350°
2026-04-24 06:52 -4.87432 119.54242 8151 ft 289 kts 351°
2026-04-24 06:53 -4.85442 119.53853 8878 ft 293 kts 351°
2026-04-24 06:53 -4.83460 119.53378 9540 ft 296 kts 339°
2026-04-24 06:53 -4.81764 119.52135 10077 ft 306 kts 309°
2026-04-24 06:53 -4.80720 119.50229 10409 ft 323 kts 292°
2026-04-24 06:54 -4.79903 119.48076 10574 ft 347 kts 290°
2026-04-24 06:54 -4.79067 119.45739 10995 ft 362 kts 290°
2026-04-24 06:54 -4.78219 119.43338 11674 ft 370 kts 290°
2026-04-24 06:54 -4.77350 119.40889 12504 ft 374 kts 290°
2026-04-24 06:55 -4.76467 119.38427 13385 ft 377 kts 290°
2026-04-24 06:55 -4.75567 119.35938 14144 ft 382 kts 290°
2026-04-24 06:55 -4.74652 119.33428 14877 ft 386 kts 290°
2026-04-24 06:55 -4.73722 119.30888 15634 ft 390 kts 290°
2026-04-24 06:56 -4.72782 119.28325 16389 ft 393 kts 290°
2026-04-24 06:56 -4.71831 119.25737 16809 ft 398 kts 290°
2026-04-24 06:56 -4.70865 119.23111 16788 ft 402 kts 290°
2026-04-24 06:56 -4.69901 119.20492 16791 ft 400 kts 290°
2026-04-24 06:57 -4.68942 119.17885 16792 ft 398 kts 290°
2026-04-24 06:57 -4.67986 119.15287 16796 ft 397 kts 290°
2026-04-24 06:57 -4.67029 119.12688 16799 ft 398 kts 290°
2026-04-24 06:57 -4.66070 119.10082 16797 ft 398 kts 290°
2026-04-24 06:58 -4.65113 119.07483 16797 ft 398 kts 290°
2026-04-24 06:58 -4.64169 119.04904 16762 ft 392 kts 288°
2026-04-24 06:58 -4.63770 119.02204 16698 ft 398 kts 264°
2026-04-24 06:58 -4.64478 118.99518 15660 ft 403 kts 244°
2026-04-24 06:59 -4.66068 118.97164 12957 ft 423 kts 224°
2026-04-24 06:59 -4.67366 118.96207 12567 ft 406 kts 212°